DW8961 Weather Reports


time (UTC)temp
C
wind
direction
speed
KPH
gust
KPH
rain 1hr
cm
rain 24hr
cm
rain mn
cm
humidity
%
barometer
mb
20260505122018 12 180 4.8 8.0 0.00 0.00 0.00 85 1014.1
20260505121017 12 225 4.8 9.7 0.00 0.00 0.00 85 1014.0
20260505120038 12 203 8.0 12.9 0.00 0.00 0.00 85 1014.0
20260505115017 12 203 4.8 9.7 0.00 0.00 0.00 85 1014.0
20260505114017 12 225 6.4 9.7 0.00 0.00 0.00 85 1013.9
20260505113017 12 203 4.8 8.0 0.00 0.00 0.00 85 1013.9
20260505112017 12 225 4.8 8.0 0.00 0.00 0.00 85 1013.9
20260505111018 12 225 4.8 9.7 0.00 0.00 0.00 85 1013.8
20260505102017 12 225 8.0 16.1 0.00 0.00 0.00 85 1013.6
20260505101019 12 225 6.4 14.5 0.00 0.00 0.00 85 1013.5
20260505100017 12 225 6.4 12.9 0.00 0.00 0.00 85 1013.4
20260505095017 12 225 8.0 14.5 0.00 0.00 0.00 85 1013.3
20260505094038 12 225 6.4 11.3 0.00 0.00 0.00 85 1013.3
20260505093037 12 225 8.0 14.5 0.00 0.00 0.00 85 1013.2
20260505092017 12 225 8.0 14.5 0.00 0.00 0.00 85 1013.2
20260505091017 12 248 4.8 8.0 0.00 0.00 0.00 86 1013.1
20260505090038 12 248 4.8 12.9 0.00 0.00 0.00 86 1012.9
20260505085039 12 248 4.8 9.7 0.00 0.00 0.00 85 1013.0
20260505084018 12 248 8.0 11.3 0.00 0.00 0.00 86 1013.0
20260505083017 12 248 6.4 11.3 0.00 0.00 0.00 85 1012.9
20260505082037 12 248 4.8 8.0 0.00 0.00 0.00 85 1012.9
20260505081017 12 248 3.2 6.4 0.00 0.00 0.00 85 1012.9
20260505080017 12 248 1.6 4.8 0.00 0.00 0.00 84 1012.7
20260505075017 12 270 1.6 4.8 0.00 0.00 0.00 84 1012.7
20260505074017 12 248 3.2 6.4 0.00 0.00 0.00 84 1012.6
20260505073017 13 270 3.2 9.7 0.00 0.00 0.00 84 1012.4
20260505072038 13 270 4.8 11.3 0.00 0.00 0.00 83 1012.4
20260505071017 13 293 3.2 6.4 0.00 0.00 0.00 83 1012.3
20260505070017 13 270 3.2 8.0 0.00 0.00 0.00 83 1012.2
20260505065016 13 270 3.2 8.0 0.00 0.00 0.00 83 1012.1
20260505064016 13 270 4.8 11.3 0.00 0.00 0.00 82 1011.9
20260505063016 13 270 6.4 12.9 0.00 0.00 0.00 82 1011.8
20260505062016 13 270 3.2 6.4 0.00 0.00 0.00 81 1011.8
20260505061016 14 270 4.8 9.7 0.00 0.00 0.00 81 1011.7
20260505060016 14 270 4.8 8.0 0.00 0.00 0.00 80 1011.6
20260505055016 14 270 6.4 9.7 0.00 0.00 0.00 79 1011.4
20260505054036 15 270 6.4 12.9 0.00 0.00 0.00 78 1011.4
20260505053016 15 270 6.4 9.7 0.00 0.00 0.00 78 1011.3
20260505052016 15 270 6.4 14.5 0.00 0.00 0.00 77 1011.3
20260505051016 16 248 9.7 17.7 0.00 0.00 0.00 75 1011.2
20260505041016 18 225 11.3 17.7 0.00 0.00 0.00 68 1010.5
20260505040017 18 248 6.4 11.3 0.00 0.00 0.00 67 1010.4
20260505035036 18 248 9.7 14.5 0.00 0.00 0.00 66 1010.2
20260505034015 19 248 9.7 16.1 0.00 0.00 0.00 65 1010.1
20260505033036 20 248 11.3 17.7 0.00 0.00 0.00 64 1009.9
20260505032015 20 270 9.7 17.7 0.00 0.00 0.00 62 1009.8
20260505031015 21 270 9.7 16.1 0.00 0.00 0.00 62 1009.7
20260505030038 21 270 9.7 16.1 0.00 0.00 0.00 61 1009.5
20260505025037 21 293 6.4 12.9 0.00 0.00 0.00 60 1009.3
20260505024037 22 293 4.8 11.3 0.00 0.00 0.00 59 1009.3
20260505023017 22 293 6.4 16.1 0.00 0.00 0.00 58 1009.1
20260505022037 23 293 4.8 11.3 0.00 0.00 0.00 58 1009.1
20260505021015 23 293 6.4 12.9 0.00 0.00 0.00 57 1009.1
20260505020036 23 270 4.8 12.9 0.00 0.00 0.00 58 1009.1
20260505015015 23 293 6.4 14.5 0.00 0.00 0.00 56 1009.1
20260505014016 23 293 6.4 14.5 0.00 0.00 0.00 56 1009.1
20260505013016 24 270 6.4 11.3 0.00 0.00 0.00 55 1009.1
20260505012016 25 293 6.4 16.1 0.00 0.00 0.00 53 1009.1
20260505011017 25 293 3.2 9.7 0.00 0.00 0.00 51 1009.2
20260505010016 25 293 3.2 9.7 0.00 0.00 0.00 50 1009.2
20260505005057 25 270 6.4 11.3 0.00 0.00 0.00 51 1009.3
20260505004035 26 293 6.4 11.3 0.00 0.00 0.00 52 1009.2
20260505003037 26 270 4.8 12.9 0.00 0.00 0.00 49 1009.2
20260505002015 26 293 6.4 14.5 0.00 0.00 0.00 47 1009.2
20260505001016 27 293 6.4 11.3 0.00 0.00 0.00 45 1009.2
20260505000016 27 293 4.8 9.7 0.00 0.00 0.00 44 1009.3
20260504235056 27 270 6.4 11.3 0.00 0.00 0.00 42 1009.2
20260504234015 28 293 4.8 11.3 0.00 0.00 0.00 41 1009.2
20260504233016 28 270 9.7 14.5 0.00 0.00 0.00 41 1009.3
20260504232016 27 270 6.4 9.7 0.00 0.00 0.00 44 1009.4
20260504231016 27 270 8.0 12.9 0.00 0.00 0.00 43 1009.4
20260504230015 27 293 4.8 11.3 0.00 0.00 0.00 43 1009.5
20260504225036 27 293 4.8 9.7 0.00 0.00 0.00 42 1009.7
20260504224015 27 270 4.8 11.3 0.00 0.00 0.00 47 1009.7
20260504223016 27 270 4.8 11.3 0.00 0.00 0.00 47 1009.8
20260504222036 27 293 3.2 8.0 0.00 0.00 0.00 44 1009.9
20260504221016 28 270 8.0 12.9 0.00 0.00 0.00 44 1010.0
20260504220017 27 270 6.4 14.5 0.00 0.00 0.00 45 1010.0
20260504215016 27 293 4.8 9.7 0.00 0.00 0.00 42 1010.1
20260504214036 27 293 4.8 8.0 0.00 0.00 0.00 45 1010.2
20260504213016 27 293 4.8 9.7 0.00 0.00 0.00 42 1010.3
20260504212015 27 293 3.2 9.7 0.00 0.00 0.00 41 1010.3
20260504211035 27 293 3.2 8.0 0.00 0.00 0.00 44 1010.3
20260504210016 27 293 1.6 4.8 0.00 0.00 0.00 40 1010.3
20260504205035 27 293 3.2 8.0 0.00 0.00 0.00 38 1010.3
20260504204015 27 270 4.8 8.0 0.00 0.00 0.00 40 1010.4
20260504203036 27 270 4.8 8.0 0.00 0.00 0.00 40 1010.4
20260504202037 26 293 3.2 8.0 0.00 0.00 0.00 41 1010.5
20260504201017 26 270 3.2 8.0 0.00 0.00 0.00 40 1010.6
20260504200056 26 270 4.8 8.0 0.00 0.00 0.00 42 1010.7
20260504195016 25 270 6.4 9.7 0.00 0.00 0.00 41 1010.7
20260504194017 25 270 6.4 9.7 0.00 0.00 0.00 45 1010.6
20260504193016 25 270 8.0 11.3 0.00 0.00 0.00 44 1010.7
20260504192015 25 270 6.4 11.3 0.00 0.00 0.00 47 1010.8
20260504191017 24 270 6.4 11.3 0.00 0.00 0.00 48 1010.9
20260504190036 24 270 6.4 11.3 0.00 0.00 0.00 47 1010.9
20260504185016 25 270 8.0 11.3 0.00 0.00 0.00 46 1011.0
20260504184016 25 270 6.4 11.3 0.00 0.00 0.00 49 1011.1
20260504183016 24 293 3.2 6.4 0.00 0.00 0.00 50 1011.2
20260504182015 25 293 1.6 4.8 0.00 0.00 0.00 47 1011.2
20260504181037 24 293 1.6 4.8 0.00 0.00 0.00 52 1011.2
20260504180015 23 293 1.6 6.4 0.00 0.00 0.00 49 1011.1
20260504175015 22 270 3.2 6.4 0.00 0.00 0.00 53 1011.1
20260504174015 22 270 4.8 6.4 0.00 0.00 0.00 51 1011.1
20260504173016 22 293 1.6 4.8 0.00 0.00 0.00 52 1011.1
20260504172035 22 270 1.6 6.4 0.00 0.00 0.00 52 1011.1
20260504171036 22 293 1.6 4.8 0.00 0.00 0.00 54 1011.1
20260504151016 17 293 4.8 6.4 0.00 0.00 0.00 65 1010.4
20260504141015 13 0.0 3.2 0.00 0.00 0.00 73 1009.9